Regional Weather Roundup
Issued by NWS Bismarck, ND

Home | Current Version | Previous Version | Text Only | Print | Product List | Glossary On
Versions: 1 2 3 4 5 6 7 8 9 10 11 12 13 14 15 16 17 18 19 20 21 22 23 24 25 26 27 28 29 30 31 32 33 34 35 36 37 38 39 40 41 42 43 44 45 46 47 48 49 50
000
ASUS43 KBIS 100520
RWRBIS

NWR BROADCAST TEXT
NATIONAL WEATHER SERVICE BISMARCK ND
1200 AM CDT THU JUL 10 2014

NOTE: "FAIR" INDICATES FEW OR NO CLOUDS BELOW 12,000 FEET WITH NO
SIGNIFICANT WEATHER AND/OR OBSTRUCTIONS TO VISIBILITY.


CITY           SKY/WX    TMP DP  RH WIND       PRES   REMARKS
WILLISTON      CLEAR     72  59  63 SE10      29.85F
MINOT          CLEAR     63  58  83 SE6       29.90S
MINOT AFB      CLEAR     62  62  99 SE8       29.89F
BISMARCK       CLEAR     64  59  83 SE6       29.95S HAZE
DICKINSON      CLEAR     64  57  78 S10       29.92S
GARRISON         N/A     64  60  87 SE7       29.92S
HETTINGER ARPT CLEAR     63  55  75 SE8       29.96S
JAMESTOWN      CLEAR     62  54  74 SE7       29.97S
CARRINGTON     FAIR      59  59 100 S8        29.98R
CROSBY           N/A     66  64  94 S15G21    29.84F
HARVEY         FAIR      63  57  82 S8        29.94S
HAZEN          FAIR      64  57  77 S13       29.92S
LINTON         FAIR      64  61  88 SE12      29.96F
MANDAN         FAIR      64  59  82 S9        29.96S
RUGBY          FAIR      63  57  82 SE9       29.92F
STANLEY          N/A     64  64 100 SE8       29.90S
TIOGA          FAIR      64  64 100 SE8       29.91F
WATFORD CITY   FAIR      66  57  72 SE12      29.85S
$$

CITY           SKY/WX    TMP DP  RH WIND       PRES   REMARKS
GRAND FORKS    CLEAR     62  53  72 SE6       29.97S
GRAND FORKS AF CLEAR     59  52  79 S5        29.98S
DEVILS LAKE    CLEAR     64  52  63 SE12      29.94S
FARGO          NOT AVBL
CANDO          FAIR      57  54  88 SE7       29.95F
CAVALIER       FAIR      61  54  77 S5        29.96S HAZE
GRAFTON        FAIR      57  52  82 SE5       29.96S
GWINNER        CLEAR     63  59  88 SE6       30.00S
LANGDON        FAIR      54  50  87 SE9       29.97S
ROLLA          CLOUDY    59  55  88 S7        29.95F
WALHALLA         N/A     61  55  82 S3          N/A
$$

CITY           SKY/WX    TMP DP  RH WIND       PRES   REMARKS
ABERDEEN       CLEAR     60  55  83 SE6       29.98F
MOBRIDGE       CLEAR     66  58  75 SE10      29.94F
BUFFALO          N/A     63  55  75 SE10      29.90S
RAPID CITY     CLEAR     61  55  81 SE7       29.98S
GLASGOW        CLEAR     70  54  56 E10       29.75F
SIDNEY         CLEAR     68  55  64 S9        29.85F
WOLF POINT     CLEAR     71  54  54 E6        29.77F
GLENDIVE       CLEAR     73  54  49 S14       29.85F
MILES CITY     MOCLDY    76  53  44 SE14G24   29.82F
BAKER          CLEAR     67  55  65 SE16      29.91F
$$

CITY           SKY/WX    TMP DP  RH WIND       PRES   REMARKS
BILLINGS       CLOUDY    78  56  46 SW9       29.84R
GREAT FALLS    CLOUDY    73  46  38 W6        29.82S
REGINA         CLEAR     66  61  82 SE16      29.78F
ESTEVAN        PTCLDY    66  61  82 SE10      29.86F
$$




USA.gov is the U.S. government's official web portal to all federal, state and local government web resources and services.